When you browse on this site, cookies collect data to enhance your experience and personalize the content and advertising you see.
Visit our Privacy Policy to learn more. By continuing to use the site, you agree to this use of cookies and data.
  • In Romania
  • List of Countries
  • For 7 days
  • Water Temperature
  • Satellite Maps
  • Weather Map
  • Weather Widgets
  • user-avatar
    Login

    Hourly Weather Quito

    Today, 17 January, Thursday

    Time Temperature Precipitation Wind Pressure Humidity
    00:00 +14°C° 0 mm 1 mps 621 mmHg 95%
    01:00 +14°C° 0 mm 1 mps 621 mmHg 95%
    02:00 +14°C° 0 mm 1 mps 621 mmHg 95%
    03:00 +14°C° 0 mm 1 mps 621 mmHg 95%
    04:00 +13°C° 0 mm 1 mps 621 mmHg 95%
    05:00 +14°C° 0 mm 1 mps 621 mmHg 92%
    06:00 +15°C° 0 mm 1 mps 622 mmHg 90%
    07:00 +16°C° 0 mm 1 mps 622 mmHg 87%
    08:00 +20°C° 0 mm 1 mps 623 mmHg 78%
    09:00 +22°C° 0 mm 1 mps 624 mmHg 69%
    10:00 +25°C° 0 mm 1 mps 625 mmHg 60%
    11:00 +24°C° 0.1 mm 1 mps 624 mmHg 62%
    12:00 +24°C° 0.1 mm 1 mps 623 mmHg 64%
    13:00 +24°C° 0.1 mm 1 mps 622 mmHg 66%
    14:00 +24°C° 0.1 mm 1 mps 622 mmHg 66%
    15:00 +24°C° 0.1 mm 1 mps 622 mmHg 66%
    16:00 +25°C° 0.1 mm 1 mps 622 mmHg 66%
    17:00 +23°C° 0.8 mm 1 mps 621 mmHg 74%
    18:00 +21°C° 0.8 mm 1 mps 621 mmHg 83%
    19:00 +19°C° 0.8 mm 1 mps 621 mmHg 92%
    20:00 +18°C° 0.6 mm 1 mps 621 mmHg 92%
    21:00 +18°C° 0.6 mm 1 mps 622 mmHg 93%
    22:00 +18°C° 0.6 mm 1 mps 622 mmHg 94%
    23:00 +18°C° 0.1 mm 1 mps 622 mmHg 94%

    Tomorrow, 18 January, Friday

    Time Temperature Precipitation Wind Pressure Humidity
    00:00 +18°C° 0.1 mm 1 mps 622 mmHg 95%
    01:00 +16°C° 0.1 mm 1 mps 622 mmHg 95%
    02:00 +16°C° 0 mm 1 mps 621 mmHg 96%
    03:00 +16°C° 0 mm 2 mps 621 mmHg 96%
    04:00 +16°C° 0 mm 2 mps 621 mmHg 97%
    05:00 +16°C° 0 mm 2 mps 621 mmHg 96%
    06:00 +17°C° 0 mm 2 mps 622 mmHg 95%
    07:00 +17°C° 0 mm 2 mps 622 mmHg 93%
    08:00 +19°C° 0.3 mm 2 mps 623 mmHg 86%
    09:00 +22°C° 0.3 mm 1 mps 623 mmHg 79%
    10:00 +24°C° 0.3 mm 1 mps 624 mmHg 72%
    11:00 +25°C° 2.2 mm 1 mps 624 mmHg 73%
    12:00 +23°C° 2.2 mm 0 mps 623 mmHg 74%
    13:00 +24°C° 2.2 mm 0 mps 623 mmHg 75%
    14:00 +22°C° 3.2 mm 0 mps 622 mmHg 80%
    15:00 +21°C° 3.2 mm 0 mps 621 mmHg 84%
    16:00 +22°C° 3.2 mm 1 mps 621 mmHg 89%
    17:00 +21°C° 2 mm 1 mps 621 mmHg 90%
    18:00 +20°C° 2 mm 1 mps 621 mmHg 91%
    19:00 +18°C° 2 mm 2 mps 621 mmHg 91%
    20:00 +19°C° 1.3 mm 1 mps 622 mmHg 92%
    21:00 +18°C° 1.3 mm 1 mps 622 mmHg 93%
    22:00 +18°C° 1.3 mm 1 mps 623 mmHg 93%
    23:00 +18°C° 0.8 mm 1 mps 622 mmHg 94%

    Day after tomorrow, 19 January, Saturday

    Time Temperature Precipitation Wind Pressure Humidity
    00:00 +18°C° 0.8 mm 1 mps 622 mmHg 95%
    01:00 +16°C° 0.8 mm 2 mps 622 mmHg 97%
    02:00 +16°C° 0.6 mm 2 mps 621 mmHg 97%
    03:00 +16°C° 0.6 mm 2 mps 621 mmHg 96%
    04:00 +16°C° 0.6 mm 3 mps 621 mmHg 96%
    05:00 +16°C° 0 mm 3 mps 621 mmHg 95%
    06:00 +17°C° 0 mm 3 mps 622 mmHg 95%
    07:00 +17°C° 0 mm 3 mps 622 mmHg 94%
    08:00 +19°C° 0.2 mm 3 mps 623 mmHg 87%
    09:00 +21°C° 0.2 mm 3 mps 623 mmHg 80%
    10:00 +24°C° 0.2 mm 2 mps 624 mmHg 73%
    11:00 +24°C° 0.8 mm 2 mps 624 mmHg 73%
    12:00 +24°C° 0.8 mm 2 mps 623 mmHg 74%
    13:00 +24°C° 0.8 mm 2 mps 623 mmHg 74%
    14:00 +23°C° 1.7 mm 1 mps 622 mmHg 79%
    15:00 +22°C° 1.7 mm 1 mps 621 mmHg 84%
    16:00 +21°C° 1.7 mm 1 mps 621 mmHg 90%
    17:00 +20°C° 1.3 mm 1 mps 621 mmHg 90%
    18:00 +20°C° 1.3 mm 1 mps 621 mmHg 91%
    19:00 +18°C° 1.3 mm 2 mps 622 mmHg 92%
    20:00 +19°C° 1.2 mm 1 mps 622 mmHg 93%
    21:00 +19°C° 1.2 mm 1 mps 622 mmHg 94%
    22:00 +19°C° 1.2 mm 1 mps 623 mmHg 95%
    23:00 +18°C° 0.4 mm 1 mps 622 mmHg 95%

    20 January, Sunday

    Time Temperature Precipitation Wind Pressure Humidity
    00:00 +18°C° 0.4 mm 1 mps 622 mmHg 96%
    01:00 +17°C° 0.4 mm 2 mps 621 mmHg 96%
    02:00 +17°C° 0.8 mm 2 mps 622 mmHg 97%
    03:00 +18°C° 0.8 mm 1 mps 622 mmHg 97%
    04:00 +18°C° 0.8 mm 1 mps 622 mmHg 97%
    05:00 +18°C° 0.8 mm 1 mps 622 mmHg 96%
    06:00 +17°C° 0.8 mm 2 mps 623 mmHg 96%
    07:00 +17°C° 0.8 mm 2 mps 623 mmHg 95%
    08:00 +18°C° 0.2 mm 2 mps 623 mmHg 94%
    09:00 +18°C° 0.2 mm 2 mps 623 mmHg 92%
    10:00 +18°C° 0.2 mm 2 mps 624 mmHg 91%
    11:00 +19°C° 0.5 mm 2 mps 624 mmHg 86%
    12:00 +21°C° 0.5 mm 3 mps 623 mmHg 82%
    13:00 +22°C° 0.5 mm 3 mps 623 mmHg 78%
    14:00 +23°C° 0.7 mm 2 mps 623 mmHg 78%
    15:00 +23°C° 0.7 mm 2 mps 622 mmHg 78%
    16:00 +23°C° 0.7 mm 2 mps 622 mmHg 79%
    17:00 +20°C° 0.3 mm 2 mps 622 mmHg 84%
    18:00 +20°C° 0.3 mm 1 mps 622 mmHg 88%
    19:00 +19°C° 0.3 mm 1 mps 622 mmHg 93%
    20:00 +18°C° 1 mm 1 mps 622 mmHg 94%
    21:00 +18°C° 1 mm 1 mps 623 mmHg 95%
    22:00 +17°C° 1 mm 2 mps 623 mmHg 97%
    23:00 +16°C° 0 mm 2 mps 623 mmHg 97%

    21 January, Monday

    Time Temperature Precipitation Wind Pressure Humidity
    00:00 +16°C° 0 mm 1 mps 622 mmHg 97%
    01:00 +16°C° 0 mm 1 mps 622 mmHg 97%
    02:00 +16°C° 0 mm 1 mps 622 mmHg 97%
    03:00 +16°C° 0 mm 1 mps 622 mmHg 97%
    04:00 +15°C° 0 mm 1 mps 622 mmHg 97%
    05:00 +16°C° 0 mm 1 mps 622 mmHg 97%
    06:00 +16°C° 0 mm 1 mps 623 mmHg 96%
    07:00 +18°C° 0 mm 1 mps 623 mmHg 96%
    08:00 +19°C° 0.2 mm 1 mps 624 mmHg 90%
    09:00 +21°C° 0.2 mm 1 mps 624 mmHg 85%
    10:00 +23°C° 0.2 mm 1 mps 625 mmHg 80%
    11:00 +23°C° 1 mm 1 mps 624 mmHg 79%
    12:00 +23°C° 1 mm 2 mps 624 mmHg 79%
    13:00 +24°C° 1 mm 2 mps 623 mmHg 78%
    14:00 +23°C° 1.6 mm 2 mps 623 mmHg 80%
    15:00 +23°C° 1.6 mm 2 mps 622 mmHg 82%
    16:00 +23°C° 1.6 mm 2 mps 622 mmHg 84%
    17:00 +22°C° 1.3 mm 1 mps 622 mmHg 87%
    18:00 +21°C° 1.3 mm 1 mps 622 mmHg 89%
    19:00 +17°C° 1.3 mm 0 mps 622 mmHg 92%
    20:00 +17°C° 0.3 mm 0 mps 622 mmHg 92%
    21:00 +17°C° 0.3 mm 0 mps 623 mmHg 91%
    22:00 +16°C° 0.3 mm 0 mps 623 mmHg 91%
    23:00 +16°C° 0 mm 0 mps 622 mmHg 91%

    22 January, Tuesday

    Time Temperature Precipitation Wind Pressure Humidity
    00:00 +16°C° 0 mm 0 mps 622 mmHg 92%
    01:00 +15°C° 0 mm 0 mps 622 mmHg 93%
    02:00 +15°C° 0 mm 0 mps 621 mmHg 94%
    03:00 +15°C° 0 mm 0 mps 621 mmHg 95%
    04:00 +14°C° 0 mm 0 mps 621 mmHg 95%
    05:00 +15°C° 0 mm 0 mps 622 mmHg 95%
    06:00 +16°C° 0 mm 0 mps 622 mmHg 94%
    07:00 +16°C° 0 mm 0 mps 623 mmHg 93%
    08:00 +20°C° 0.3 mm 1 mps 623 mmHg 86%
    09:00 +21°C° 0.3 mm 2 mps 624 mmHg 80%
    10:00 +22°C° 0.3 mm 3 mps 624 mmHg 73%
    11:00 +24°C° 0.8 mm 3 mps 624 mmHg 74%
    12:00 +24°C° 0.8 mm 3 mps 623 mmHg 75%
    13:00 +24°C° 0.8 mm 2 mps 622 mmHg 75%
    14:00 +24°C° 1.8 mm 2 mps 622 mmHg 77%
    15:00 +23°C° 1.8 mm 2 mps 621 mmHg 80%
    16:00 +23°C° 1.8 mm 1 mps 621 mmHg 82%
    17:00 +22°C° 0.9 mm 1 mps 621 mmHg 84%
    18:00 +21°C° 0.9 mm 1 mps 621 mmHg 86%
    19:00 +17°C° 0.9 mm 0 mps 621 mmHg 89%
    20:00 +17°C° 0.4 mm 0 mps 622 mmHg 89%
    21:00 +17°C° 0.4 mm 0 mps 622 mmHg 90%
    22:00 +17°C° 0.4 mm 0 mps 622 mmHg 90%
    23:00 +17°C° 0.1 mm 0 mps 622 mmHg 91%
    Show more